[[{"header":{"parameterUnit":"m.s-1","parameterCategory":1,"la1":30.2991,"la2":30.254,"lo1":-89.0895,"lo2":-89.0444,"dy":0.0017,"dx":0.0017,"nx":28,"ny":28,"refTime":"2025-06-01T03:00:00:Z","depth":0,"parameterNumber":2,"parameterNumberName":"U-component_of_WINDS"},"data":[0,0,0,0,0,0,0,0,0,0,0,0,0,0,0,0,0,0,0,0,0,0,0,0,0,0,0,0,0,0,0,0,0,0,0,0,0,0,0,0,0,0,0,0,0,0,0,0,0,0,0,0,0,0,0,0,0,0,0.2465,0.2466,0,0.256,0.2561,0.2562,0.2611,0.2611,0.2611,0.2611,0.271,0.2712,0.2715,0,0,0,0,0,0,0,0,0,0,0,0,0,0.2325,0.2328,0.2465,0.2466,0.2467,0.256,0.2561,0.2563,0.2611,0.2611,0.2611,0.2611,0.2709,0.2712,0.2715,0,0,0,0,0,0,0,0,0,0,0,0,0,0.24,0.2328,0.2465,0.2503,0.2507,0.256,0.2562,0.2563,0.2611,0.2611,0.2611,0.2611,0.2708,0.2712,0.2715,0.2738,0,0,0.2727,0.2729,0,0,0,0,0,0,0,0,0.2396,0.2405,0.2496,0.25,0.2505,0.2574,0.2548,0.2622,0.2611,0.2572,0.2611,0.2611,0.2665,0.2672,0.269,0.2743,0.2747,0.2728,0.273,0.2732,0.2733,0,0,0,0,0,0,0,0.239,0.2401,0.2503,0.2497,0.2503,0.2515,0.2526,0.2562,0.2617,0.2575,0.2579,0.2589,0.2667,0.2686,0.2692,0.2748,0.2727,0.2731,0.2733,0.2735,0.2824,0.2824,0,0,0,0,0,0,0.2379,0.2396,0.25,0.2506,0.2449,0.2518,0.2529,0.2552,0.2616,0.2626,0.2589,0.2591,0.2679,0.2688,0.2696,0.2726,0.2732,0.2735,0.2737,0.2824,0.2824,0.2824,0,0,0,0,0,0,0.2376,0.2388,0.2496,0.2452,0.2467,0.252,0.2545,0.2554,0.2573,0.2627,0.2637,0.2599,0.268,0.2691,0.2727,0.2731,0.2737,0.274,0.2824,0.2824,0.2824,0.2787,0,0,0,0,0,0,0.2372,0.2386,0.2395,0.2452,0.2469,0.2525,0.2545,0.2555,0.2579,0.2583,0.2638,0.2648,0.2681,0.2721,0.2731,0.2736,0.2743,0.2824,0.2824,0.2824,0.2789,0.2786,0.2784,0,0,0,0,0,0.2366,0.2381,0.2395,0.2408,0.2481,0.2525,0.2535,0.2572,0.2579,0.2589,0.2624,0.2646,0.2728,0.2724,0.2736,0.2742,0.2824,0.2824,0.2824,0.2789,0.2787,0.2784,0,0,0,0,0,0,0.2324,0.239,0.2406,0.244,0.2476,0.2533,0.2546,0.2568,0.2604,0.2606,0.2651,0.2663,0.2695,0.2722,0.2717,0.2767,0.2778,0.2781,0.2748,0.2746,0.2744,0.2737,0.2747,0,0,0,0,0,0.2318,0.2349,0.2404,0.2429,0.2446,0.2493,0.2513,0.2539,0.2579,0.2595,0.2633,0.2671,0.2705,0.2727,0.2762,0.2793,0.2805,0.2803,0.28,0.2798,0.28,0.2818,0.2817,0.2824,0.2824,0.2824,0,0,0.2308,0.2347,0.2363,0.2421,0.2453,0.2483,0.2506,0.2537,0.256,0.26,0.2636,0.2665,0.2711,0.2744,0.2761,0.2768,0.2801,0.2799,0.2797,0.2799,0.2818,0.2817,0.2817,0.2825,0.2824,0.2824,0,0,0.2303,0.2336,0.236,0.2391,0.2438,0.2469,0.2475,0.2528,0.2549,0.2586,0.2617,0.2645,0.2704,0.2735,0.2758,0.2765,0.2787,0.2775,0.2764,0.2781,0.278,0.278,0.2782,0.2782,0.2776,0.2776,0.2776,0,0.2284,0.233,0.2369,0.2399,0.2423,0.246,0.2485,0.2513,0.2569,0.2585,0.2592,0.2666,0.27,0.2741,0.2742,0.276,0.2768,0.2769,0.2777,0.2777,0.2777,0.278,0.2781,0.2774,0.2775,0.2775,0.2775,0,0.2304,0.2335,0.2349,0.2402,0.2428,0.2455,0.2498,0.252,0.2543,0.2573,0.261,0.2651,0.2695,0.2707,0.273,0.2751,0.2754,0.2768,0.278,0.2774,0.2777,0.2779,0.2772,0.2773,0.2773,0.2773,0,0,0.2275,0.2349,0.2354,0.2378,0.2433,0.2458,0.2487,0.2529,0.2547,0.2584,0.2609,0.2657,0.2671,0.2697,0.2724,0.2739,0.2741,0.2752,0.2753,0.2748,0.2767,0.2755,0.2756,0.2756,0.2756,0.2757,0.2763,0,0.2278,0.2331,0.2367,0.2405,0.2434,0.247,0.2495,0.2531,0.256,0.2589,0.2621,0.2655,0.267,0.2687,0.2703,0.2737,0.2746,0.2737,0.2779,0.278,0.2767,0.2758,0.2746,0.275,0.2764,0.2765,0.2765,0,0.2289,0.2325,0.2366,0.2417,0.2431,0.2452,0.2494,0.2522,0.2564,0.2584,0.2613,0.264,0.2671,0.2681,0.2724,0.2718,0.2737,0.2756,0.2758,0.2763,0.2772,0.2762,0.2752,0.2752,0.2767,0.2767,0.2767,0,0.2263,0.2322,0.2355,0.2374,0.2435,0.2449,0.2475,0.2517,0.254,0.2577,0.2592,0.2632,0.2653,0.2683,0.272,0.2724,0.276,0.2772,0.2777,0.2776,0.2783,0.2782,0.2776,0.2796,0.2796,0.2796,0.2796,0,0.2263,0.2286,0.2344,0.2364,0.2391,0.2432,0.2458,0.2487,0.2524,0.255,0.2584,0.2607,0.2655,0.2685,0.2714,0.2745,0.2755,0.2772,0.2779,0.2769,0.2766,0.2782,0.2782,0.2796,0.2796,0.2796,0.2796,0,0.2239,0.2279,0.2316,0.237,0.2385,0.2402,0.2449,0.247,0.25,0.2532,0.2542,0.259,0.2627,0.2667,0.2717,0.2736,0.2766,0.2777,0.2752,0.2756,0.2758,0.2757,0.2761,0.2764,0.2782,0.2782,0.2781,0,0.2236,0.2255,0.2312,0.2331,0.2356,0.2388,0.2411,0.2453,0.2476,0.2525,0.2539,0.2578,0.2611,0.2668,0.2707,0.2745,0.2757,0.2756,0.2763,0.2751,0.2757,0.2755,0.2757,0.2753,0.2753,0.2753,0.2752,0,0.2226,0.2245,0.2278,0.2317,0.2345,0.2378,0.2412,0.2427,0.2475,0.2499,0.2537,0.2562,0.2613,0.2651,0.2694,0.2721,0.2744,0.275,0.2753,0.2742,0.2727,0.2735,0.2745,0.2749,0.275,0.275,0.275,0.275,0.2213,0.2231,0.2274,0.2309,0.234,0.2371,0.2393,0.2426,0.2458,0.2502,0.2525,0.2562,0.2603,0.2663,0.2689,0.2719,0.2726,0.2731,0.2732,0.2732,0.2729,0.2722,0.2727,0.2727,0.2727,0.2727,0.2727,0,0.2205,0.2234,0.2266,0.2313,0.2341,0.2361,0.24,0.2422,0.2454,0.249,0.2522,0.2565,0.2602,0.2644,0.2683,0.2699,0.2711,0.2708,0.2707,0.2713,0.272,0.2714,0.2698,0.2698,0.2698,0.2698,0.2698,0.2698,0.2203,0.2236,0.2259,0.2307,0.2336,0.2372,0.2393,0.2422,0.2451,0.2497,0.2528,0.2555,0.2594,0.2637,0.2671,0.2683,0.2695,0.2689,0.2704,0.271,0.2712,0.2715,0.2709,0.2692,0.2692,0.2694,0.2694,0.2694]},{"header":{"parameterUnit":"m.s-1","parameterCategory":1,"la1":30.2991,"la2":30.254,"lo1":-89.0895,"lo2":-89.0444,"dy":0.0017,"dx":0.0017,"nx":28,"ny":28,"refTime":"2025-06-01T03:00:00:Z","depth":0,"parameterNumber":3,"parameterNumberName":"V-component_of_WINDS"},"data":[0,0,0,0,0,0,0,0,0,0,0,0,0,0,0,0,0,0,0,0,0,0,0,0,0,0,0,0,0,0,0,0,0,0,0,0,0,0,0,0,0,0,0,0,0,0,0,0,0,0,0,0,0,0,0,0,0,0,4.0724,4.0723,0,4.0674,4.0673,4.0673,4.0673,4.0674,4.0675,4.0675,4.0617,4.0615,4.0613,0,0,0,0,0,0,0,0,0,0,0,0,0,4.0812,4.0811,4.0724,4.0723,4.0722,4.0674,4.0673,4.0673,4.0673,4.0674,4.0675,4.0676,4.0618,4.0616,4.0613,0,0,0,0,0,0,0,0,0,0,0,0,0,4.0769,4.081,4.0724,4.0717,4.0716,4.0674,4.0673,4.0672,4.0673,4.0674,4.0675,4.0676,4.0619,4.0616,4.0613,4.0572,0,0,4.0603,4.0601,0,0,0,0,0,0,0,0,4.0772,4.0766,4.0719,4.0717,4.0716,4.0681,4.0683,4.0638,4.0673,4.0689,4.0675,4.0677,4.0637,4.0633,4.0621,4.0569,4.0567,4.0602,4.06,4.0599,4.0598,0,0,0,0,0,0,0,4.0775,4.0768,4.0704,4.0718,4.0716,4.0714,4.0709,4.0675,4.0658,4.0688,4.0688,4.0682,4.0637,4.0624,4.0619,4.0566,4.0602,4.06,4.0597,4.0596,4.0477,4.0476,0,0,0,0,0,0,4.078,4.0771,4.0705,4.0702,4.0747,4.0712,4.0706,4.0691,4.0658,4.0654,4.0681,4.0682,4.0629,4.0623,4.0617,4.0567,4.0599,4.0596,4.0594,4.0478,4.0477,4.0476,0,0,0,0,0,0,4.0782,4.0774,4.0707,4.0736,4.0728,4.0709,4.0692,4.069,4.0677,4.0654,4.065,4.0672,4.063,4.0622,4.0583,4.0565,4.0594,4.0591,4.048,4.0478,4.0476,4.0466,0,0,0,0,0,0,4.0785,4.0775,4.0761,4.0736,4.0726,4.0676,4.0691,4.0688,4.0672,4.0673,4.0644,4.064,4.063,4.0588,4.058,4.0561,4.0589,4.0481,4.0479,4.0477,4.0468,4.0464,4.0461,0,0,0,0,0,4.0788,4.0759,4.076,4.0752,4.0709,4.0675,4.0669,4.0661,4.0671,4.0655,4.064,4.0641,4.0569,4.0584,4.0575,4.0555,4.0482,4.048,4.0477,4.0469,4.0465,4.0461,0,0,0,0,0,0,4.0779,4.0755,4.0757,4.0719,4.07,4.0676,4.0656,4.0656,4.0631,4.0633,4.0621,4.0614,4.0576,4.0561,4.0579,4.0513,4.0526,4.0522,4.0524,4.0519,4.0516,4.0519,4.0586,0,0,0,0,0,4.0774,4.0751,4.073,4.0699,4.0689,4.0674,4.0659,4.0655,4.0633,4.0624,4.0606,4.0582,4.0554,4.0536,4.0509,4.0466,4.0459,4.0447,4.0444,4.0441,4.0437,4.0411,4.0406,4.0467,4.0467,4.0467,0,0,4.076,4.0745,4.073,4.0697,4.0681,4.0655,4.0667,4.064,4.062,4.0619,4.0582,4.0568,4.0541,4.05,4.0481,4.0486,4.0418,4.0437,4.0435,4.0432,4.0408,4.0402,4.0397,4.0465,4.0465,4.0465,0,0,4.0724,4.071,4.0682,4.0667,4.0643,4.0634,4.0627,4.0603,4.0594,4.0558,4.0556,4.0531,4.0484,4.0464,4.0448,4.0404,4.0403,4.0395,4.0376,4.0352,4.0347,4.0343,4.0326,4.032,4.0391,4.0391,4.0391,0,4.0709,4.0673,4.0667,4.064,4.0625,4.0625,4.0595,4.058,4.0548,4.0536,4.0544,4.0484,4.0466,4.042,4.0409,4.0397,4.0387,4.0398,4.0349,4.0344,4.034,4.0324,4.0317,4.0391,4.0391,4.0391,4.0391,0,4.0657,4.0631,4.0611,4.0583,4.0565,4.0537,4.0525,4.0507,4.0503,4.0492,4.0454,4.0432,4.0401,4.039,4.0385,4.0342,4.0347,4.0352,4.0365,4.0334,4.0318,4.0312,4.0389,4.039,4.039,4.039,0,0,4.0612,4.0582,4.0574,4.0561,4.0536,4.0515,4.0485,4.0457,4.0441,4.0419,4.0393,4.0353,4.0357,4.0339,4.0332,4.0311,4.0276,4.0319,4.0318,4.031,4.0226,4.0222,4.0215,4.0276,4.0275,4.0274,4.0228,0,4.0572,4.0523,4.0517,4.0472,4.0447,4.0447,4.0422,4.0402,4.039,4.0366,4.0353,4.0324,4.0333,4.0322,4.0301,4.0285,4.0259,4.0288,4.0249,4.0248,4.0255,4.0207,4.0202,4.016,4.0222,4.0221,4.022,0,4.0518,4.0497,4.045,4.0428,4.0417,4.0395,4.0367,4.0345,4.0322,4.0315,4.0295,4.0291,4.0258,4.0274,4.0227,4.0248,4.0231,4.0221,4.0219,4.0214,4.0231,4.0199,4.0146,4.0139,4.021,4.0211,4.0212,0,4.0489,4.0448,4.0415,4.0404,4.0377,4.0361,4.0349,4.0327,4.031,4.0285,4.0274,4.0245,4.0229,4.0205,4.0193,4.0206,4.0147,4.0161,4.0138,4.0138,4.0125,4.0126,4.0067,4.0116,4.0116,4.0116,4.0117,0,4.0443,4.0415,4.0402,4.0381,4.0348,4.0341,4.0308,4.0295,4.0276,4.0251,4.0249,4.0225,4.0211,4.0184,4.0174,4.0136,4.0129,4.0121,4.0118,4.0121,4.0121,4.0109,4.0111,4.0115,4.0115,4.0115,4.0116,0,4.0405,4.0396,4.0359,4.0338,4.0331,4.0308,4.0288,4.0267,4.0256,4.0225,4.0217,4.0199,4.0168,4.0153,4.0114,4.0107,4.0064,4.0064,4.0072,4.0071,4.0048,4.005,3.9979,3.9968,4.0025,4.0025,4.0024,0,4.0376,4.0355,4.0331,4.0316,4.0304,4.0278,4.0262,4.0253,4.0235,4.0207,4.0188,4.0158,4.0133,4.0082,4.0064,4.0034,4.0032,4.0009,4.0027,4.003,4.003,4.0031,4.0028,4.0005,4.0005,4.0004,4.0004,0,4.0326,4.0323,4.03,4.0275,4.0256,4.0235,4.0215,4.0202,4.0189,4.0169,4.0138,4.0119,4.008,4.0049,4.0017,4.0002,4.0,3.9999,3.9991,3.9993,3.9998,3.9994,4.0062,4.0,4.0,4.0001,4.0001,4.0001,4.0291,4.0271,4.0252,4.0226,4.0211,4.0192,4.0171,4.0158,4.0133,4.0103,4.0098,4.0065,4.0041,3.9999,3.9982,3.9954,3.996,3.9949,3.9947,3.9944,3.9942,4.0004,3.9949,3.9949,3.9949,3.9949,3.9949,0,4.0239,4.0227,4.0204,4.0177,4.0156,4.0159,4.0137,4.0119,4.009,4.0069,4.0045,4.0009,3.9979,3.9959,3.9928,3.9909,3.9907,3.9901,3.9901,3.9898,3.994,3.9949,3.9903,3.9903,3.9903,3.9903,3.9903,3.9903,4.021,4.0177,4.0171,4.013,4.0117,4.0087,4.0073,4.0055,4.0038,3.9999,3.9975,3.9963,3.9942,3.9909,3.988,3.9875,3.9863,3.9856,3.9851,3.989,3.9895,3.9899,3.9908,3.9854,3.9854,3.9811,3.981,3.981]}]]